Date,TemperatureHighF,TemperatureAvgF,TemperatureLowF,DewpointHighF,DewpointAvgF,DewpointLowF,HumidityHigh,HumidityAvg,HumidityLow,PressureMaxIn,PressureMinIn,WindSpeedMaxMPH,WindSpeedAvgMPH,GustSpeedMaxMPH,PrecipitationSumIn
2013-3-1,48.0,35.2,25.7,31.3,26.1,21.6,89,70,49,30.41,30.26,8,2,15,0.00
2013-3-2,52.2,36.9,21.0,27.7,21.9,15.3,82,57,30,30.49,30.23,4,2,8,0.00
2013-3-3,68.5,52.0,34.9,37.0,29.6,21.5,65,44,25,30.23,29.64,14,7,21,0.00
2013-3-4,71.2,59.1,44.1,43.9,36.9,31.7,78,46,31,30.06,29.54,14,6,21,0.00
2013-3-5,50.9,41.8,32.0,36.2,21.7,12.4,85,48,25,30.47,30.06,13,4,21,0.00
2013-3-6,55.6,39.2,29.5,20.8,18.4,14.6,66,48,21,30.48,30.22,6,1,8,0.00
2013-3-7,70.2,54.4,37.9,29.3,23.5,19.3,52,32,16,30.23,30.03,16,6,21,0.00
2013-3-8,60.1,56.4,53.1,53.6,45.7,29.3,91,69,35,30.15,29.93,14,7,22,0.00
2013-3-9,63.1,58.1,53.8,60.5,55.9,52.5,99,93,77,29.93,29.63,14,6,22,0.20
2013-3-10,55.8,41.5,35.6,53.7,34.4,25.7,97,76,56,30.14,29.65,8,4,13,0.01
2013-3-11,57.0,40.9,26.8,28.0,22.6,14.5,85,53,21,30.15,29.99,5,2,8,0.00
2013-3-12,61.5,47.0,30.9,38.3,29.3,19.8,77,51,36,30.39,30.05,5,1,9,0.00
2013-3-13,63.3,48.8,30.9,32.2,27.3,20.3,79,47,24,30.50,30.32,9,2,12,0.00
2013-3-14,78.8,62.1,46.0,45.0,38.8,30.5,57,44,25,30.36,30.09,11,5,15,0.00
2013-3-15,81.9,68.3,55.0,47.1,44.9,40.8,67,46,24,30.13,29.78,12,7,17,0.00
2013-3-16,80.8,67.3,52.3,53.1,47.8,40.9,65,51,34,29.82,29.66,11,6,20,0.00
2013-3-17,52.3,44.4,40.1,41.2,39.1,36.4,96,82,66,29.89,29.72,8,2,15,0.00
2013-3-18,65.5,49.9,39.7,42.5,34.6,21.7,99,64,21,30.20,29.70,8,2,12,13.79
2013-3-19,61.3,49.8,33.3,38.0,27.0,21.7,81,45,22,30.26,30.04,11,2,17,0.00
2013-3-20,60.6,48.2,33.3,34.4,29.5,25.5,78,50,29,30.42,30.07,7,2,10,0.00
2013-3-21,56.7,48.4,42.8,41.1,34.3,27.9,72,58,45,30.07,29.59,15,7,24,0.00
2013-3-22,48.9,42.7,37.2,40.5,38.0,35.9,99,84,70,29.94,29.71,9,3,14,0.00
2013-3-23,44.2,41.6,37.6,42.5,40.4,37.3,99,96,82,29.95,29.75,7,2,10,0.02
2013-3-24,46.6,37.0,29.7,37.3,23.2,12.1,99,60,27,30.29,29.92,11,4,20,0.02
2013-3-25,46.6,35.6,25.9,20.2,13.8,8.9,67,44,22,30.48,30.29,8,3,15,0.00
2013-3-26,55.8,39.4,22.6,22.6,16.3,12.2,69,42,22,30.54,30.28,8,2,11,0.00
2013-3-27,68.9,52.7,39.2,39.9,29.2,21.4,54,41,28,30.28,30.03,17,7,28,0.00
2013-3-28,73.6,61.0,50.0,54.9,48.3,38.7,80,64,47,30.17,30.02,15,6,20,0.00
2013-3-29,73.9,64.4,57.7,62.8,57.8,54.7,95,80,62,30.15,30.00,11,5,16,0.01
2013-3-30,81.5,66.9,54.3,61.4,58.2,53.5,99,76,46,30.04,29.82,9,3,13,0.00
2013-3-31,72.5,61.6,52.5,60.4,49.2,40.6,99,68,32,30.04,29.87,11,2,21,0.52